This demonstration page uses our WeatherBlox Daily Observations layout. Learn more.

Left ArrowRight Arrow

38.83388, -104.82136

Hourly Observations for March 30, 2018

Temp ( °F °C ) Dew Point ( °F °C ) Humidity (%) Winds ( mph kmh ) Pressure ( in mb ) Visibility ( mi km ) Precip ( " mm )
12:13 am 00:13 Mostly Cloudy 28 -2 27 -3 93 93 Calm 29.94 1014 10 16 0.00 0.00
12:58 am 00:58 Mostly Cloudy 28 -2 26 -3.1 92 92 NW 3 6 29.93 1014 10 16 0.00 0.00
1:13 am 01:13 Mostly Cloudy 28 -2 27 -3 93 93 NNW 3 6 29.93 1014 10 16 0.00 0.00
1:58 am 01:58 Mostly Cloudy 28 -2.2 27 -3 94 94 Calm 29.93 1014 10 16 0.00 0.00
2:08 am 02:08 Mostly Cloudy 28 -2 27 -3 93 93 Calm 29.92 1013 10 16 0.00 0.00
2:58 am 02:58 Mostly Cloudy 27 -2.6 26 -3.1 96 96 Calm 29.88 1012 10 16 0.00 0.00
3:53 am 03:53 Mostly Cloudy 28 -2 27 -3 93 93 Calm 29.86 1011 10 16 0.00 0.00
3:58 am 03:58 Mostly Cloudy 28 -2.4 26 -3.6 92 92 NNW 5 7 29.85 1011 10 16 0.00 0.00
4:48 am 04:48 Partly Cloudy 27 -3 25 -4 93 93 Calm 29.87 1011 10 16 0.00 0.00
4:53 am 04:53 Mostly Cloudy 27 -3 25 -4 93 93 WNW 3 6 29.87 1011 10 16 0.00 0.00
4:58 am 04:58 Mostly Cloudy 27 -2.6 25 -4.1 90 90 NW 5 7 29.87 1011 10 16 0.00 0.00
5:53 am 05:53 Partly Cloudy 27 -3 25 -4 93 93 Calm 29.89 1012 10 16 0.00 0.00
5:58 am 05:58 Partly Cloudy 27 -2.8 24 -4.4 89 89 NNW 3 6 29.91 1013 10 16 0.00 0.00
6:58 am 06:58 Sunny 27 -3 24 -4.2 92 92 Calm 29.92 1013 10 16 0.00 0.00
7:58 am 07:58 Sunny 28 -2.1 26 -3.4 91 91 Calm 29.92 1013 10 16 0.00 0.00
8:58 am 08:58 Sunny 31 -0.3 26 -3.2 81 81 Calm 29.91 1013 10 16 0.00 0.00
9:58 am 09:58 Sunny 34 0.9 28 -2.2 80 80 Calm 29.88 1012 10 16 0.00 0.00
10:58 am 10:58 Sunny 38 3.6 28 -2 67 67 E 3 6 29.87 1011 10 16 0.00 0.00
11:58 am 11:58 Sunny 45 7.1 29 -1.8 54 54 SSE 15 24 29.80 1009 10 16 0.00 0.00
12:58 pm 12:58 Sunny 48 8.8 28 -2.1 47 47 SE 17 28 29.73 1007 10 16 0.00 0.00
1:58 pm 13:58 Sunny 50 10.1 24 -4.2 37 37 SSE 16 26 29.69 1005 10 16 0.00 0.00
2:58 pm 14:58 Sunny 54 12.3 20 -6.5 27 27 S 10 17 29.64 1004 10 16 0.00 0.00
3:58 pm 15:58 Partly Cloudy 58 14.7 18 -7.6 21 21 SE 7 11 29.57 1001 10 16 0.00 0.00
4:58 pm 16:58 Partly Cloudy 59 15.2 14 -10.2 16 16 Calm 29.57 1001 10 16 0.00 0.00
5:58 pm 17:58 Partly Cloudy 56 13.2 16 -8.9 21 21 WNW 5 7 29.60 1002 10 16 0.00 0.00
6:58 pm 18:58 Mostly Sunny 55 12.8 11 -11.4 17 17 WSW 6 9 29.60 1003 10 16 0.00 0.00
7:58 pm 19:58 Mostly Cloudy 52 11.3 13 -10.6 21 21 WNW 8 13 29.62 1003 10 16 0.00 0.00
8:58 pm 20:58 Mostly Cloudy 52 11.2 12 -11 20 20 SW 6 9 29.65 1004 10 16 0.00 0.00
9:58 pm 21:58 Mostly Cloudy 50 10.2 15 -9.5 24 24 Calm 29.68 1005 10 16 0.00 0.00
10:58 pm 22:58 Partly Cloudy 47 8.5 17 -8.2 30 30 Calm 29.67 1005 10 16 0.00 0.00
11:58 pm 23:58 Mostly Cloudy 47 8.5 16 -9 28 28 S 6 9 29.62 1003 10 16 0.00 0.00

Powered by AerisWeather